DW3039 Karjalohja FI current weather conditions

sailwx.info

Wind from 042 at 6 knots gusting 11

Air temperature 0.6° C
Dewpoint 0.6° C

Last reported at 2015-Jan-31 21:46 UTC.
Time now 2015-Jan-31 22:41 UTC

Location: N 60°16' E 023°41'.
View on Google Maps.

See reports from other nearby stations

  
Tides and Currents Weather Stations Pressure Air Temp Water Temp Dewpoint Dewpoint Depression Visibility Wind Speed Wind Dir Waves Ship Positions
date/time (UTC)wind fromknots sea level pressurealtimeterstation pressurevisibilityair tempwater tempwave heightnotes
2015-Jan-31 21:46 042 6 gusting 11 0.6
2015-Jan-31 21:36 048 5 gusting 8 0.6
2015-Jan-31 21:26 051 3 gusting 9 0.6
2015-Jan-31 21:16 042 4 gusting 12 0.6
2015-Jan-31 21:06 035 6 gusting 14 0.6
2015-Jan-31 20:56 053 6 gusting 10 0.6
2015-Jan-31 20:46 045 4 gusting 8 0.6
2015-Jan-31 20:36 032 5 gusting 7 0.6
2015-Jan-31 20:26 044 5 gusting 13 0.6
2015-Jan-31 20:16 048 5 gusting 11 0.6
2015-Jan-31 20:06 047 3 gusting 7 0.6
2015-Jan-31 19:56 042 4 gusting 10 0.6
2015-Jan-31 19:46 049 2 gusting 13 0.6
2015-Jan-31 19:36 038 3 gusting 12 0.6
2015-Jan-31 19:26 037 4 gusting 8 0.6
2015-Jan-31 19:16 036 2 gusting 12 0.6
2015-Jan-31 19:06 044 6 gusting 10 0.6
2015-Jan-31 18:56 040 6 gusting 13 0.6
2015-Jan-31 18:46 051 6 gusting 10 0.6
2015-Jan-31 18:36 050 4 gusting 12 0.6
2015-Jan-31 18:26 045 1 gusting 15 0.6
2015-Jan-31 18:16 050 1 gusting 11 0.6
2015-Jan-31 18:06 039 6 gusting 14 0.6
2015-Jan-31 17:56 054 6 gusting 13 0.6
2015-Jan-31 17:46 064 4 gusting 14 0.6
2015-Jan-31 17:36 043 5 gusting 13 0.6
2015-Jan-31 17:26 050 5 gusting 17 0.6
2015-Jan-31 17:16 041 6 gusting 12 0.6
2015-Jan-31 17:05 090 0.6
2015-Jan-31 16:55 056 4 gusting 11 0.6
2015-Jan-31 16:45 038 4 gusting 13 0.6
2015-Jan-31 16:35 038 6 gusting 13 0.6
2015-Jan-31 16:25 043 5 gusting 14 0.6
2015-Jan-31 16:15 059 3 gusting 11 0.6
2015-Jan-31 16:05 038 5 gusting 12 0.6
2015-Jan-31 15:55 047 8 gusting 15 0.6
2015-Jan-31 15:45 059 5 gusting 12 0.6
2015-Jan-31 15:35 040 7 gusting 13 0.6
2015-Jan-31 15:25 047 5 gusting 13 0.6
2015-Jan-31 15:15 045 5 gusting 16 0.6
2015-Jan-31 15:05 058 6 gusting 12 0.6
2015-Jan-31 14:55 063 3 gusting 10 0.6
2015-Jan-31 14:45 063 3 gusting 11 0.6
2015-Jan-31 14:35 049 4 gusting 11 0.6
2015-Jan-31 14:25 045 6 gusting 13 0.6
2015-Jan-31 14:15 048 3 gusting 16 0.6
2015-Jan-31 14:05 042 6 gusting 17 0.6
2015-Jan-31 13:55 064 5 gusting 13 0.6
2015-Jan-31 13:45 039 5 gusting 18 0.6
2015-Jan-31 13:35 042 5 gusting 15 0.6
2015-Jan-31 13:25 044 8 gusting 15 0.6
2015-Jan-31 13:15 065 3 gusting 14 0.6
2015-Jan-31 13:05 043 6 gusting 16 0.6
2015-Jan-31 12:55 056 6 gusting 11 0.6
2015-Jan-31 12:45 042 6 gusting 15 0.6
2015-Jan-31 12:35 049 5 gusting 12 0.6
2015-Jan-31 12:25 056 5 gusting 10 0.6
2015-Jan-31 12:15 066 4 gusting 19 0.6
2015-Jan-31 12:05 072 4 gusting 13 1.1
2015-Jan-31 11:55 092 5 gusting 9 1.1
2015-Jan-31 11:45 066 4 gusting 13 0.6
2015-Jan-31 11:35 065 6 gusting 9 0.6
2015-Jan-31 11:25 064 2 gusting 21 0.6
2015-Jan-31 11:15 040 4 gusting 17 0.6
2015-Jan-31 11:05 056 5 gusting 13 0.6
2015-Jan-31 10:55 046 3 gusting 13 0.6
2015-Jan-31 10:45 056 6 gusting 16 0.6
2015-Jan-31 10:35 048 5 gusting 13 0.6
2015-Jan-31 10:25 045 6 gusting 15 0.6
2015-Jan-31 10:15 064 4 gusting 12 0.6
2015-Jan-31 10:04 058 5 gusting 13 1.1
2015-Jan-31 09:54 107 4 gusting 13 1.1
2015-Jan-31 09:44 058 6 gusting 13 1.1
2015-Jan-31 09:34 057 6 gusting 13 1.1
2015-Jan-31 09:24 117 4 gusting 10 1.1
2015-Jan-31 09:14 122 4 gusting 13 1.1
2015-Jan-31 09:04 064 4 gusting 13 1.1
2015-Jan-31 08:54 060 5 gusting 19 1.1
2015-Jan-31 08:44 051 6 gusting 12 0.6
2015-Jan-31 08:34 050 6 gusting 13 0.6
2015-Jan-31 08:24 053 5 gusting 14 0.6
2015-Jan-31 08:14 060 5 gusting 14 0.6
2015-Jan-31 08:04 046 5 gusting 15 0.6
2015-Jan-31 07:54 051 6 gusting 13 0.6
2015-Jan-31 07:44 048 6 gusting 16 0.6
2015-Jan-31 07:34 068 3 gusting 12 0.6
2015-Jan-31 07:24 043 5 gusting 15 0.6
2015-Jan-31 07:14 060 5 gusting 12 0.6
2015-Jan-31 07:04 071 5 gusting 10 0.6
2015-Jan-31 06:54 100 2 gusting 13 0.6
2015-Jan-31 06:44 135 2 gusting 9 0.6
2015-Jan-31 06:34 055 3 gusting 13 0.6
2015-Jan-31 06:24 046 3 gusting 14 0.6
2015-Jan-31 06:14 043 4 gusting 13 0.6
2015-Jan-31 06:04 120 3 gusting 11 0.6
2015-Jan-31 05:54 071 4 gusting 9 0.6
2015-Jan-31 05:44 132 2 gusting 13 0.6
2015-Jan-31 05:34 080 3 gusting 10 0.6
2015-Jan-31 05:24 053 6 gusting 13 0.6
2015-Jan-31 05:14 087 1 gusting 9 0.6
2015-Jan-31 05:04 083 6 gusting 13 0.6
2015-Jan-31 04:54 119 4 gusting 11 0.6
2015-Jan-31 04:44 056 4 gusting 12 0.6
2015-Jan-31 04:34 082 3 gusting 12 0.6
2015-Jan-31 04:24 085 3 gusting 11 0.6
2015-Jan-31 04:14 095 3 gusting 11 0.6
2015-Jan-31 04:04 137 2 gusting 16 -0.0
2015-Jan-31 03:54 072 3 gusting 13 -0.0
2015-Jan-31 03:44 064 6 gusting 14 -0.0
2015-Jan-31 03:34 067 5 gusting 11 -0.0
2015-Jan-31 03:24 124 3 gusting 9 -0.0
2015-Jan-31 03:14 095 2 gusting 11 -0.0
2015-Jan-31 03:04 068 6 gusting 15 -0.0
2015-Jan-31 02:54 091 3 gusting 15 -0.0
2015-Jan-31 02:44 053 3 gusting 11 -0.0
2015-Jan-31 02:34 056 3 gusting 12 -0.0
2015-Jan-31 02:24 066 3 gusting 11 -0.0
2015-Jan-31 02:14 042 5 gusting 10 -0.0
2015-Jan-31 02:04 122 3 gusting 10 -0.0
2015-Jan-31 01:54 066 2 gusting 10 -0.0
2015-Jan-31 01:44 055 1 gusting 10 -0.0
2015-Jan-31 01:34 072 2 gusting 8 -0.0
2015-Jan-31 01:24 111 2 gusting 7 -0.0
2015-Jan-31 01:14 068 3 gusting 10 -0.0
2015-Jan-31 01:03 071 4 gusting 9 -0.0
2015-Jan-31 00:53 040 1 gusting 11 -0.0
2015-Jan-31 00:43 064 3 gusting 7 -0.0
2015-Jan-31 00:33 055 4 gusting 11 -0.0
2015-Jan-31 00:23 055 5 gusting 9 -0.0
2015-Jan-31 00:13 067 3 gusting 10 -0.0
2015-Jan-31 00:03 074 2 gusting 7 -0.0
2015-Jan-30 23:53 101 1 gusting 6 -0.6
2015-Jan-30 23:43 023 0 gusting 9 -0.6
2015-Jan-30 23:33 055 2 gusting 8 -0.6
2015-Jan-30 23:23 080 2 gusting 10 -0.6
2015-Jan-30 23:13 053 5 gusting 9 -0.6
2015-Jan-30 23:03 043 2 gusting 10 -0.6
2015-Jan-30 22:53 044 2 gusting 6 -0.6
2015-Jan-30 22:43 052 3 gusting 6 -0.6
2015-Jan-30 22:33 054 3 gusting 8 -1.1
2015-Jan-30 22:23 052 2 gusting 7 -1.1
2015-Jan-30 22:13 058 4 gusting 8 -1.1
2015-Jan-30 22:03 050 3 gusting 7 -1.1
2015-Jan-30 21:53 054 2 gusting 6 -1.1
2015-Jan-30 21:43 053 3 gusting 6 -1.1
2015-Jan-30 21:33 103 -1.1
2015-Jan-30 21:23 052 1 gusting 6 -1.1
2015-Jan-30 21:13 032 3 gusting 7 -1.1
2015-Jan-30 21:03 050 4 gusting 7 -1.1
2015-Jan-30 20:53 066 0 gusting 5 -1.1
2015-Jan-30 20:43 059 0 gusting 4 -1.1
2015-Jan-30 20:33 059 -1.1
2015-Jan-30 20:23 051 1 gusting 6 -1.1
2015-Jan-30 20:13 029 -1.1
2015-Jan-30 20:03 060 0 gusting 4 -1.1
2015-Jan-30 19:53 146 -0.6
2015-Jan-30 19:43 064 -0.6
2015-Jan-30 19:33 033 -0.6
2015-Jan-30 19:23 126 0 gusting 6 -0.6
2015-Jan-30 19:13 111 0 gusting 5 -0.6
2015-Jan-30 19:03 110 -0.6
2015-Jan-30 18:53 007 -0.6
2015-Jan-30 18:43 072 0 gusting 8 -0.6
2015-Jan-30 18:33 154 0 gusting 4 -0.6
2015-Jan-30 18:23 069 0 gusting 3 -0.6
2015-Jan-30 18:13 126 0 gusting 4 -0.6
2015-Jan-30 18:03 102 -0.6
2015-Jan-30 17:53 152 -0.6
2015-Jan-30 17:43 045 -0.6
2015-Jan-30 17:33 043 0 gusting 7 -0.0
2015-Jan-30 17:23 067 0 gusting 4 -0.0
2015-Jan-30 17:13 158 0 gusting 6 -0.0
2015-Jan-30 17:03 065 0 gusting 6 -0.0
2015-Jan-30 16:53 093 0 gusting 4 -0.0
2015-Jan-30 16:43 091 -0.0
2015-Jan-30 16:33 072 2 gusting 5 -0.0
2015-Jan-30 16:23 172 0 gusting 5 -0.0
2015-Jan-30 16:13 155 -0.0
2015-Jan-30 16:02 123 -0.0
2015-Jan-30 15:52 071 0 gusting 4 -0.0
2015-Jan-30 15:42 083 1 gusting 6 -0.0
2015-Jan-30 15:32 114 0 gusting 6 -0.0
2015-Jan-30 15:22 007 -0.0
2015-Jan-30 15:12 138 2 gusting 8 -0.0
2015-Jan-30 15:02 085 0 gusting 5 0.6
2015-Jan-30 14:52 149 0 gusting 4 0.6
2015-Jan-30 14:42 141 0 gusting 6 0.6
2015-Jan-30 14:32 142 0.6
2015-Jan-30 14:22 151 0 gusting 6 0.6
2015-Jan-30 14:12 138 1 gusting 8 0.6
2015-Jan-30 14:02 159 0 gusting 7 0.6
2015-Jan-30 13:52 101 0 gusting 6 0.6
2015-Jan-30 13:42 123 0 gusting 4 0.6
2015-Jan-30 13:32 139 0 gusting 6 0.6
2015-Jan-30 13:22 142 1 gusting 6 0.6
2015-Jan-30 13:12 130 1 gusting 6 0.6
2015-Jan-30 13:02 159 0 gusting 6 0.6
2015-Jan-30 12:52 121 1 gusting 5 0.6
2015-Jan-30 12:42 187 0.6
2015-Jan-30 12:32 188 0 gusting 9 0.6
2015-Jan-30 12:22 142 0 gusting 6 0.6
2015-Jan-30 12:12 193 0.6
2015-Jan-30 12:02 127 2 gusting 11 0.6
2015-Jan-30 11:52 156 0 gusting 8 0.6
2015-Jan-30 11:42 107 0.6
2015-Jan-30 11:32 138 3 gusting 7 0.6
2015-Jan-30 11:22 142 3 gusting 10 0.6
2015-Jan-30 11:12 189 2 gusting 9 0.6
2015-Jan-30 11:02 146 4 gusting 8 0.6
2015-Jan-30 10:52 138 2 gusting 7 1.1
2015-Jan-30 10:42 137 0 gusting 7 1.1
2015-Jan-30 10:32 140 2 gusting 8 0.6
2015-Jan-30 10:22 160 1 gusting 6 1.1
2015-Jan-30 10:12 158 2 gusting 12 1.1
2015-Jan-30 10:02 161 0 gusting 11 0.6
2015-Jan-30 09:52 191 0 gusting 6 0.6
2015-Jan-30 09:42 112 0.6
2015-Jan-30 09:32 155 1 gusting 9 0.6
2015-Jan-30 09:22 180 1 gusting 8 0.6
2015-Jan-30 09:12 155 2 gusting 7 0.6
2015-Jan-30 09:02 138 1 gusting 6 0.6
2015-Jan-30 08:52 134 0 gusting 6 0.6
2015-Jan-30 08:42 109 1 gusting 6 0.6
2015-Jan-30 08:32 140 0 gusting 8 0.6
2015-Jan-30 08:22 146 2 gusting 8 0.6
2015-Jan-30 08:12 154 4 gusting 10 0.6
2015-Jan-30 08:02 188 2 gusting 7 0.6
2015-Jan-30 07:52 156 1 gusting 6 0.6
2015-Jan-30 07:42 158 4 gusting 9 0.6
2015-Jan-30 07:32 155 0 gusting 6 0.6
2015-Jan-30 07:22 143 1 gusting 9 0.6
2015-Jan-30 07:11 177 0 gusting 6 0.6
2015-Jan-30 07:01 139 2 gusting 8 0.6
2015-Jan-30 06:51 127 1 gusting 6 0.6
2015-Jan-30 06:41 177 0.6
2015-Jan-30 06:31 140 3 gusting 8 0.6
2015-Jan-30 06:21 156 2 gusting 6 0.6
2015-Jan-30 06:11 143 1 gusting 6 0.6
2015-Jan-30 06:01 136 2 gusting 7 0.6
2015-Jan-30 05:51 145 1 gusting 7 0.6
2015-Jan-30 05:41 140 2 gusting 9 0.6
2015-Jan-30 05:31 122 0.6
2015-Jan-30 05:21 151 0 gusting 6 0.6
2015-Jan-30 05:11 128 0.6
2015-Jan-30 05:01 179 0 gusting 7 0.6
2015-Jan-30 04:51 143 0 gusting 9 0.6
2015-Jan-30 04:41 125 1 gusting 9 0.6
2015-Jan-30 04:31 140 2 gusting 8 0.6
2015-Jan-30 04:21 150 1 gusting 5 0.6
2015-Jan-30 04:11 151 0 gusting 10 0.6
2015-Jan-30 04:01 120 0 gusting 7 0.6
2015-Jan-30 03:51 140 0.6
2015-Jan-30 03:41 098 0.6
2015-Jan-30 03:31 172 0.6
2015-Jan-30 03:21 125 1 gusting 6 0.6
2015-Jan-30 03:11 145 1 gusting 6 0.6
2015-Jan-30 03:01 156 2 gusting 6 0.6
2015-Jan-30 02:51 152 0 gusting 8 0.6
2015-Jan-30 02:41 127 0.6
2015-Jan-30 02:31 198 0 gusting 6 0.6
2015-Jan-30 02:21 136 1.1
2015-Jan-30 02:11 137 1 gusting 6 1.1
2015-Jan-30 02:01 117 0 gusting 12 1.1
2015-Jan-30 01:51 197 2 gusting 8 1.1
2015-Jan-30 01:41 190 4 gusting 10 1.1
2015-Jan-30 01:31 200 2 gusting 7 1.1
2015-Jan-30 01:21 173 3 gusting 8 1.1
2015-Jan-30 01:11 141 1.1
2015-Jan-30 01:01 182 1.1
2015-Jan-30 00:51 141 1.1
2015-Jan-30 00:41 189 4 gusting 7 1.1
2015-Jan-30 00:31 163 3 gusting 8 1.1
2015-Jan-30 00:21 170 2 gusting 8 1.1
2015-Jan-30 00:11 136 2 gusting 10 1.1
2015-Jan-30 00:01 338 1.1
2015-Jan-29 23:51 207 1 gusting 8 1.1
2015-Jan-29 23:41 155 2 gusting 10 1.1
2015-Jan-29 23:31 107 0 gusting 7 1.1
2015-Jan-29 23:21 150 1 gusting 7 1.1
2015-Jan-29 23:11 202 1 gusting 8 1.1
2015-Jan-29 23:01 137 3 gusting 10 1.1
2015-Jan-29 22:51 161 2 gusting 7 1.1
2015-Jan-29 22:41 119 1 gusting 7 1.1
2015-Jan-29 22:31 144 1 gusting 6 1.1
2015-Jan-29 22:21 174 2 gusting 8 1.1
2015-Jan-29 22:10 191 2 gusting 7 1.1
2015-Jan-29 22:00 190 3 gusting 7 1.1